SB KEPS @ AMSAT $ORB26233.1
2Line Orbital Elements 26233.AMSAT
QST de W1STR
AMSAT Orbital Elements for Amateur Satellites in TLE Format
From Orbital Analysis Office
New England Sci-Tech STEM Education Center
Natick MA August 21, 2026
To all radio amateurs
These element sets describe the orbits of various satellites
in use by the amateur radio community. For details see:
www.amsat.org/keplerian-elements-formats/
A daily update of element sets is available at:
www.amsat.org/tle/daily-bulletin.txt
or without bulletin text:
www.amsat.org/tle/dailytle.txt
AO-07
1 07530U 74089B 26232.63062699 -.00000042 00000-0 25550-4 0 9997
2 07530 101.9919 246.5509 0012309 10.2309 101.2129 12.53699170368598
UO-11
1 14781U 84021B 26232.45212311 .00001366 00000-0 14405-3 0 9993
2 14781 97.8122 197.3365 0007063 343.6359 16.4630 14.90931214266700
LO-19
1 20442U 90005G 26232.29899320 .00000061 00000-0 38593-4 0 9992
2 20442 98.8843 255.8667 0011909 23.4568 336.7156 14.34138579911581
AO-27
1 22825U 93061C 26232.60913935 .00000048 00000-0 35407-4 0 9994
2 22825 98.6831 299.9834 0007222 271.3334 88.7021 14.30956331716214
FO-29
1 24278U 96046B 26232.55830714 -.00000024 00000-0 14611-4 0 9990
2 24278 98.5193 72.6066 0348847 289.4609 66.9155 13.53276874481875
GO-32
1 25397U 98043D 26232.54720370 .00000035 00000-0 35191-4 0 9994
2 25397 99.0124 226.9447 0002107 57.7895 302.3487 14.24438844460490
ISS
1 25544U 98067A 26232.56576862 .00008927 00000-0 16683-3 0 9993
2 25544 51.6332 341.4615 0007678 66.5031 293.6764 15.49530645581738
NO-44
1 26931U 01043C 26232.62613650 .00000053 00000-0 50734-4 0 9994
2 26931 67.0496 77.6012 0005638 269.7547 90.2909 14.31976191299674
SO-50
1 27607U 02058C 26232.55051688 .00000795 00000-0 11120-3 0 9999
2 27607 64.5518 289.8285 0073274 250.6690 108.6483 14.83167009274008
CO-55
1 27844U 03031E 26232.52399543 .00000211 00000-0 10997-3 0 9990
2 27844 98.6763 240.2808 0009634 6.5211 353.6092 14.24369139200830
RS-22
1 27939U 03042A 26232.65937329 .00000956 00000-0 15514-3 0 9997
2 27939 98.3492 58.8528 0012499 66.5568 21.6883 14.73566169225043
CO-65
1 32785U 08021C 26232.60528198 .00003900 00000-0 24422-3 0 9999
2 32785 97.8342 215.4104 0009261 157.8539 202.3091 15.09967758994919
CO-66
1 32791U 08021J 26232.52735677 .00016360 00000-0 48765-3 0 9999
2 32791 97.7554 233.6097 0004882 88.1758 272.0043 15.34744206997155
RS-30
1 32953U 08025A 26232.72238762 .00000043 00000-0 24079-3 0 9991
2 32953 82.5064 315.3042 0020032 167.7838 192.3731 12.43182307827716
SRMSAT
1 37841U 11058D 26232.62234356 .00000365 00000-0 53985-4 0 9992
2 37841 19.9731 29.4499 0011644 192.7563 246.7185 14.11587377766939
ZACUBE-1
1 39417U 13066B 26232.45578214 .00005304 00000-0 40640-3 0 9990
2 39417 97.8027 195.0979 0042291 37.7859 322.6321 15.01566615690376
Delfi-N3xt
1 39428U 13066N 26232.21302382 .00007233 00000-0 61910-3 0 9993
2 39428 97.8295 152.4812 0073592 355.2761 4.7756 14.95790797684191
GOMX-1
1 39430U 13066Q 26232.59817581 .00001521 00000-0 23397-3 0 9990
2 39430 97.6455 69.0007 0126940 230.1534 128.8451 14.69616681679378
LO-74
1 39440U 13066AA 26232.29381023 .00002442 00000-0 22678-3 0 9999
2 39440 97.8947 181.5763 0057056 173.0921 187.1099 14.94137017686566
AO-73
1 39444U 13066AE 26232.47288798 .00007728 00000-0 46923-3 0 9999
2 39444 97.8338 205.3175 0035303 348.0531 11.9856 15.10275048689360
DTUSAT-2
1 40030U 14033W 26232.55171976 .00006548 00000-0 34702-3 0 9996
2 40030 98.0907 234.4139 0008482 27.9672 332.2013 15.15741580662435
LILACSAT-2
1 40908U 15049K 26232.72724663 .00017663 00000-0 27959-3 0 9990
2 40908 97.4599 272.0966 0007081 34.0809 326.0898 15.53473200605768
Lapan A3
1 41603U 16040E 26232.60423014 .00002965 00000-0 93853-4 0 9994
2 41603 97.1543 226.6657 0011416 136.5342 223.6803 15.33460792564689
CAS-2T
1 41847U 16066G 26232.23157833 .00000411 00000-0 67886-4 0 9995
2 41847 98.3781 307.2348 0340168 295.3233 61.3086 14.44809663514041
TechnoSat
1 42829U 17042E 26231.87207453 .00002026 00000-0 14559-3 0 9996
2 42829 97.4357 27.1500 0016190 233.4751 126.4985 15.05264547496282
AO-91
1 43017U 17073E 26232.61949439 .00007735 00000-0 32928-3 0 9992
2 43017 97.4613 98.5204 0150010 105.7955 255.9875 15.13534057475139
S-Net D
1 43186U 18014G 26232.18297416 .00004075 00000-0 20844-3 0 9996
2 43186 97.5278 136.5729 0008934 145.3758 214.8058 15.17179958468461
S-Net B
1 43187U 18014H 26232.19571647 .00004238 00000-0 21679-3 0 9997
2 43187 97.5287 136.5738 0009672 142.1705 218.0210 15.17148793468468
S-Net A
1 43188U 18014J 26232.64317725 .00004058 00000-0 20745-3 0 9996
2 43188 97.5294 137.2398 0009580 141.1555 219.0369 15.17191777468531
S-Net C
1 43189U 18014K 26232.46379605 .00004242 00000-0 21696-3 0 9993
2 43189 97.5312 137.1461 0011096 136.4703 223.7408 15.17141032467051
Ten-Koh
1 43677U 18084G 26232.49908082 .00002292 00000-0 17447-3 0 9994
2 43677 98.0744 67.5782 0008639 263.2309 96.7932 15.03155134425822
PO-101
1 43678U 18084H 26232.58508030 .00001393 00000-0 11520-3 0 9991
2 43678 98.1210 71.6266 0010516 320.0201 40.0246 15.00661635425875
QO-100
1 43700U 18090A 26232.48926035 .00000142 00000-0 00000-0 0 9991
2 43700 0.0145 175.5187 0002530 0.9172 354.3298 1.00275153 28322
MinXSS-2
1 43758U 18099A 26231.65473748 .00045094 00000-0 76830-3 0 9991
2 43758 97.4479 309.9879 0006442 44.3131 315.8636 15.51228183423957
AO-95
1 43770U 18099N 26232.61004237 .00010280 00000-0 37915-3 0 9995
2 43770 97.4331 292.6564 0010111 116.7674 243.4601 15.27934947423055
SNUSat 2
1 43782U 18099AA 26232.61960744 .00007603 00000-0 32845-3 0 9994
2 43782 97.4008 285.0338 0011735 74.3254 285.9276 15.22709263422830
SnugLite
1 43784U 18099AC 26232.59019864 .00009715 00000-0 35369-3 0 9991
2 43784 97.3818 286.2746 0004409 76.8524 283.3207 15.28413425423153
ITASat 1
1 43786U 18099AE 26232.62695674 .00006407 00000-0 30198-3 0 9996
2 43786 97.3978 282.8656 0013925 123.7158 236.5406 15.19755004422693
EAGLET 1
1 43790U 18099AJ 26232.59468351 .00003421 00000-0 19516-3 0 9991
2 43790 97.4183 280.5571 0012600 119.4377 240.8114 15.13354939422074
ESEO
1 43792U 18099AL 26232.56839127 .00001447 00000-0 10756-3 0 9996
2 43792 97.3943 267.1927 0013661 111.3360 248.9326 15.04413997421484
JO-97
1 43803U 18099AX 26231.86589742 .00017353 00000-0 50407-3 0 9996
2 43803 97.4072 294.9896 0006520 57.5905 302.5968 15.35526766423390
Suomi 100
1 43804U 18099AY 26232.59840520 .00011069 00000-0 38562-3 0 9998
2 43804 97.4132 292.7953 0010909 59.7948 300.4371 15.29774662423269
ISAT
1 43879U 18111D 26231.81187084 .00225078 00000-0 11559-2 0 9991
2 43879 97.5805 172.5982 0008621 99.0964 261.1279 15.80576038421160
UWE-4
1 43880U 18111E 26232.59555873 .00036434 00000-0 64987-3 0 9994
2 43880 97.5815 164.1384 0010092 90.9185 269.3222 15.49941510420743
Sparrow
1 43881U 18111F 26228.98401838 .16116594 28263-5 19760-3 0 9992
2 43881 97.5857 177.1140 0010462 202.8700 157.2139 16.49385238421037
Prox-1
1 44339U 19036A 26232.49177551 .00011906 00000-0 11190-2 0 9997
2 44339 23.9957 44.2227 0006227 59.7304 300.3812 14.91943155383087
Taurus 1
1 44530U 19059C 26232.59756667 .00004803 00000-0 76141-3 0 9993
2 44530 98.6481 41.4751 0009686 108.8172 251.4085 14.72675049368122
TO-108
1 44881U 19093C 26232.73016100 .00000187 00000-0 27080-4 0 9997
2 44881 97.7482 303.3762 0012239 231.3897 128.6224 14.86601140361004
RS-44
1 44909U 19096E 26232.58150962 .00000002 00000-0 -34114-4 0 9992
2 44909 82.5219 296.9232 0217284 354.1225 5.7331 12.79748836310585
SALSAT
1 46495U 20068K 26232.55643318 .00006989 00000-0 23868-3 0 9996
2 46495 97.8886 239.5889 0011329 79.9909 280.2608 15.30600996325206
CSS (TIANHE-1)
1 48274U 21035A 26232.60924153 .00009464 00000-0 12173-3 0 9991
2 48274 41.4690 290.9413 0001518 258.4516 101.6152 15.59103899303221
TeikyoSat 4
1 49396U 21102B 26232.61529701 .00001650 00000-0 10600-3 0 9995
2 49396 97.3651 259.5933 0013654 73.8895 286.3836 15.09701741262448
Z-Sat
1 49399U 21102E 26232.64530654 .00003234 00000-0 15855-3 0 9997
2 49399 97.3295 266.0174 0017292 27.7154 332.4999 15.18694562263225
KOSEN 1
1 49402U 21102H 26232.61222998 .00006571 00000-0 24535-3 0 9990
2 49402 97.3145 273.5375 0012675 347.5281 12.5643 15.27644048263859
HO-113
1 50466U 21131B 26232.75207292 .00000450 00000-0 15242-3 0 9994
2 50466 98.4973 324.7925 0002853 263.3796 96.7068 14.41407727244417
SNUGLITE 2
1 52899U 22065F 26232.12273094 .00000789 00000-0 15817-3 0 9990
2 52899 98.2289 16.8745 0007591 173.4635 186.6667 14.64446452220357
UmKA 1 (RS40S)
1 57172U 23091G 26232.62560801 .00005117 00000-0 23063-3 0 9991
2 57172 97.4996 291.0849 0010880 251.4877 108.5177 15.21441708173803
CubeBel-2 (EU11S)
1 57175U 23091K 26232.60863462 .00012337 00000-0 41970-3 0 9990
2 57175 97.4996 296.4493 0008019 239.7475 120.2973 15.30552623174157
RS-38S
1 57189U 23091Z 26232.60125672 .00016624 00000-0 44825-3 0 9994
2 57189 97.5039 303.4490 0006890 185.7427 174.3740 15.37858882174581
SONATE-2
1 59112U 24043Q 26232.23633327 .00048117 00000-0 51881-3 0 9992
2 59112 97.5595 26.8294 0004723 327.1301 32.9662 15.63531255137885
GRBBeta
1 60237U 24128C 26232.58884417 .00003674 00000-0 25551-3 0 9996
2 60237 61.9918 350.2430 0031605 148.8612 211.4363 15.07032380115978
Curium One
1 60242U 24128H 26232.61026998 .00007082 00000-0 40316-3 0 9991
2 60242 61.9799 337.4521 0030624 144.2667 216.0487 15.13337364116201
ROBUSTA-3A
1 60243U 24128J 26232.61231369 .00007308 00000-0 42529-3 0 9991
2 60243 61.9880 340.2802 0032585 141.1725 219.1721 15.12456018116163
CatSat
1 60246U 24125J 26232.04314529 .00087539 00000-0 81480-3 0 9991
2 60246 97.2024 85.7463 0014666 302.7578 57.2269 15.66970898117360
HYPERVIEW-1G (RS66S)
1 61772U 24199AP 26230.11543498 .07890463 24672-5 93922-3 0 9997
2 61772 97.2456 114.2453 0006603 245.8477 114.2131 16.36574258144515
AO-123
1 61781U 24199AY 26232.59052392 .00007487 00000-0 21162-3 0 9999
2 61781 97.2904 100.6867 0015412 79.1727 281.1252 15.36506075143816
LASARsat
1 62391U 24247Q 26232.55788030 .00033566 00000-0 58340-3 0 9997
2 62391 44.9721 259.4164 0008410 21.4117 338.7124 15.50243612 93290
